timestamp,wind_dir_avg,wind_spd_avg,wind_spd_max_dir,wind_spd_gust,battery_voltage,lat,long
2021-10-23 00:04:01+00:00,193.0,3.86,211.0,4.86,12.65,47.59359,-54.27349
2021-10-23 00:14:01+00:00,181.0,3.44,198.0,3.95,12.57,47.59359,-54.27349
2021-10-23 00:24:01+00:00,188.0,2.59,204.0,3.04,12.57,47.59359,-54.27349
2021-10-23 00:34:01+00:00,174.0,3.52,159.0,4.22,12.57,47.59359,-54.27349
2021-10-23 00:44:01+00:00,163.0,4.28,163.0,4.68,12.57,47.59359,-54.27349
2021-10-23 00:54:01+00:00,194.0,3.21,198.0,3.62,12.57,47.59359,-54.27349
2021-10-23 01:04:01+00:00,179.0,3.74,159.0,4.23,12.57,47.59359,-54.27349
2021-10-23 01:14:01+00:00,179.0,4.21,180.0,4.64,12.57,47.59359,-54.27349
2021-10-23 01:24:01+00:00,173.0,3.55,157.0,4.23,12.57,47.59359,-54.27349
2021-10-23 01:34:01+00:00,208.0,4.26,210.0,5.65,12.57,47.59359,-54.27349
2021-10-23 01:44:01+00:00,177.0,4.88,168.0,5.65,12.57,47.59359,-54.27349
2021-10-23 01:54:01+00:00,180.0,4.59,158.0,5.17,12.57,47.59359,-54.27349
2021-10-23 02:04:01+00:00,191.0,4.13,194.0,4.54,12.57,47.59359,-54.27349
2021-10-23 02:14:01+00:00,193.0,3.85,195.0,4.18,12.57,47.59359,-54.27349
2021-10-23 02:24:01+00:00,202.0,3.67,210.0,4.1,12.57,47.59359,-54.27349
2021-10-23 02:34:01+00:00,197.0,3.85,210.0,4.17,12.57,47.59359,-54.27349
2021-10-23 02:44:01+00:00,218.0,3.16,222.0,3.65,12.57,47.59359,-54.27349
2021-10-23 02:54:01+00:00,222.0,1.99,228.0,2.41,12.57,47.59359,-54.27349
2021-10-23 03:04:01+00:00,177.0,1.26,181.0,1.42,12.57,47.59359,-54.27349
2021-10-23 03:14:00+00:00,226.0,1.25,224.0,1.41,12.57,47.59359,-54.27349
2021-10-23 03:24:00+00:00,222.0,1.52,226.0,1.73,12.57,47.59359,-54.27349
2021-10-23 03:34:00+00:00,208.0,1.7,204.0,1.88,12.57,47.59359,-54.27349
2021-10-23 03:44:00+00:00,218.0,1.6,238.0,2.38,12.57,47.59359,-54.27349
2021-10-23 03:54:00+00:00,150.0,1.88,131.0,2.54,12.57,47.59359,-54.27349
2021-10-23 04:04:00+00:00,188.0,1.01,131.0,1.94,12.57,47.59359,-54.27349
2021-10-23 04:14:00+00:00,160.0,0.84,166.0,1.32,12.57,47.59359,-54.27349
2021-10-23 04:24:00+00:00,135.0,0.32,124.0,0.48,12.57,47.59359,-54.27349
2021-10-23 04:34:00+00:00,90.0,0.53,83.0,0.65,12.57,47.59359,-54.27349
2021-10-23 04:44:00+00:00,48.0,0.62,53.0,0.89,12.57,47.59359,-54.27349
2021-10-23 04:54:00+00:00,288.0,0.12,263.0,0.36,12.57,47.59359,-54.27349
2021-10-23 05:04:00+00:00,254.0,0.52,251.0,0.63,12.57,47.59359,-54.27349
2021-10-23 05:14:01+00:00,270.0,0.11,279.0,0.19,12.49,47.59359,-54.27349
2021-10-23 05:24:01+00:00,51.0,1.03,47.0,1.28,12.49,47.59359,-54.27349
2021-10-23 05:34:01+00:00,204.0,1.12,216.0,1.49,12.49,47.59359,-54.27349
2021-10-23 05:44:01+00:00,194.0,1.43,214.0,2.01,12.49,47.59359,-54.27349
2021-10-23 05:54:01+00:00,191.0,1.84,203.0,2.37,12.49,47.59359,-54.27349
2021-10-23 06:04:01+00:00,222.0,1.33,221.0,1.73,12.49,47.59359,-54.27349
2021-10-23 06:14:00+00:00,220.0,2.38,241.0,3.76,12.49,47.59359,-54.27349
2021-10-23 06:24:00+00:00,223.0,5.14,223.0,5.84,12.49,47.59359,-54.27349
2021-10-23 06:34:00+00:00,206.0,5.42,216.0,6.38,12.49,47.59359,-54.27349
2021-10-23 06:44:00+00:00,210.0,7.25,210.0,8.16,12.49,47.59359,-54.27349
2021-10-23 06:54:00+00:00,206.0,8.32,208.0,9.14,12.49,47.59359,-54.27349
2021-10-23 07:04:00+00:00,208.0,8.3,208.0,8.99,12.49,47.59359,-54.27349
2021-10-23 07:14:01+00:00,208.0,8.15,210.0,8.83,12.49,47.59359,-54.27349
2021-10-23 07:24:01+00:00,204.0,7.71,204.0,8.49,12.49,47.59359,-54.27349
2021-10-23 07:34:01+00:00,189.0,7.78,196.0,8.76,12.49,47.59359,-54.27349
2021-10-23 07:44:01+00:00,203.0,9.24,205.0,10.39,12.49,47.59359,-54.27349
2021-10-23 07:54:01+00:00,212.0,8.33,211.0,9.21,12.49,47.59359,-54.27349
2021-10-23 08:04:01+00:00,217.0,7.87,219.0,9.13,12.49,47.59359,-54.27349
2021-10-23 08:14:01+00:00,245.0,5.39,240.0,7.16,12.49,47.59359,-54.27349
2021-10-23 08:24:01+00:00,249.0,5.5,246.0,6.34,12.49,47.59359,-54.27349
2021-10-23 08:34:01+00:00,218.0,7.11,214.0,8.01,12.49,47.59359,-54.27349
2021-10-23 08:44:01+00:00,229.0,5.15,227.0,5.64,12.49,47.59359,-54.27349
2021-10-23 08:54:01+00:00,232.0,4.07,232.0,4.63,12.49,47.59359,-54.27349
2021-10-23 09:04:01+00:00,168.0,3.77,216.0,4.58,12.49,47.59359,-54.27349
2021-10-23 09:14:00+00:00,209.0,1.59,247.0,3.24,12.41,47.59359,-54.27349
2021-10-23 09:24:00+00:00,159.0,6.04,161.0,6.66,12.41,47.59359,-54.27349
2021-10-23 09:34:00+00:00,160.0,4.51,153.0,5.31,12.41,47.59359,-54.27349
2021-10-23 09:44:00+00:00,165.0,4.13,161.0,4.98,12.41,47.59359,-54.27349
2021-10-23 09:54:00+00:00,205.0,4.54,220.0,5.83,12.41,47.59359,-54.27349
2021-10-23 10:04:00+00:00,170.0,6.86,157.0,7.84,12.41,47.59359,-54.27349
2021-10-23 10:14:01+00:00,173.0,5.48,164.0,6.22,12.41,47.59359,-54.27349
2021-10-23 10:24:01+00:00,162.0,7.3,160.0,7.93,12.41,47.59359,-54.27349
2021-10-23 10:34:01+00:00,178.0,6.09,192.0,7.15,12.41,47.59359,-54.27349
2021-10-23 10:44:01+00:00,204.0,5.52,207.0,6.41,12.41,47.59359,-54.27349
2021-10-23 10:54:01+00:00,211.0,7.3,203.0,8.36,12.41,47.59359,-54.27349
2021-10-23 11:04:01+00:00,225.0,6.43,233.0,7.66,12.41,47.59359,-54.27349
2021-10-23 11:14:01+00:00,220.0,4.89,218.0,5.54,12.41,47.59359,-54.27349
2021-10-23 11:24:01+00:00,221.0,5.5,222.0,6.07,12.41,47.59359,-54.27349
2021-10-23 11:34:01+00:00,217.0,5.29,216.0,5.77,12.41,47.59359,-54.27349
2021-10-23 11:44:01+00:00,208.0,5.9,213.0,6.55,12.41,47.59359,-54.27349
2021-10-23 11:54:01+00:00,183.0,5.54,174.0,6.85,12.41,47.59359,-54.27349
2021-10-23 12:04:01+00:00,205.0,6.28,204.0,7.21,12.41,47.59359,-54.27349
2021-10-23 12:14:01+00:00,210.0,6.94,210.0,7.91,12.73,47.59359,-54.27349
2021-10-23 12:24:01+00:00,207.0,8.38,207.0,9.52,12.73,47.59359,-54.27349
2021-10-23 12:34:01+00:00,198.0,7.88,203.0,9.6,12.73,47.59359,-54.27349
2021-10-23 12:44:01+00:00,208.0,6.51,214.0,7.76,12.73,47.59359,-54.27349
2021-10-23 12:54:01+00:00,208.0,5.8,212.0,6.47,12.73,47.59359,-54.27349
2021-10-23 13:04:01+00:00,210.0,6.86,214.0,7.55,12.73,47.59359,-54.27349
2021-10-23 13:14:01+00:00,210.0,6.45,210.0,7.21,13.29,47.59359,-54.27349
2021-10-23 13:24:01+00:00,210.0,7.22,207.0,7.81,13.29,47.59359,-54.27349
2021-10-23 13:34:01+00:00,206.0,7.37,205.0,8.02,13.29,47.59359,-54.27349
2021-10-23 13:44:01+00:00,208.0,7.26,208.0,8.07,13.29,47.59359,-54.27349
2021-10-23 13:54:01+00:00,207.0,7.68,208.0,8.46,13.29,47.59359,-54.27349
2021-10-23 14:04:01+00:00,201.0,8.83,203.0,10.04,13.29,47.59359,-54.27349
2021-10-23 14:14:01+00:00,209.0,8.49,208.0,9.48,13.21,47.59359,-54.27349
2021-10-23 14:24:01+00:00,201.0,8.77,206.0,9.79,13.21,47.59359,-54.27349
2021-10-23 14:34:01+00:00,201.0,8.3,202.0,9.39,13.21,47.59359,-54.27349
2021-10-23 14:44:01+00:00,204.0,7.28,208.0,8.14,13.21,47.59359,-54.27349
2021-10-23 14:54:01+00:00,207.0,8.83,208.0,9.9,13.21,47.59359,-54.27349
2021-10-23 15:04:01+00:00,210.0,8.49,209.0,9.47,13.21,47.59359,-54.27349
2021-10-23 15:14:01+00:00,216.0,6.92,214.0,7.83,13.44,47.59359,-54.27349
2021-10-23 15:24:01+00:00,209.0,7.87,206.0,8.65,13.44,47.59359,-54.27349
2021-10-23 15:34:01+00:00,208.0,7.75,205.0,8.54,13.44,47.59359,-54.27349
2021-10-23 15:44:01+00:00,212.0,6.8,212.0,7.65,13.44,47.59359,-54.27349
2021-10-23 15:54:01+00:00,208.0,6.9,210.0,7.63,13.44,47.59359,-54.27349
2021-10-23 16:04:01+00:00,214.0,6.11,213.0,6.46,13.44,47.59359,-54.27349
2021-10-23 16:14:01+00:00,208.0,6.25,208.0,7.01,13.92,47.59359,-54.27349
2021-10-23 16:24:01+00:00,214.0,5.48,218.0,6.0,13.92,47.59359,-54.27349
2021-10-23 16:34:01+00:00,182.0,5.87,194.0,6.76,13.92,47.59359,-54.27349
2021-10-23 16:44:01+00:00,190.0,5.99,206.0,7.13,13.92,47.59359,-54.27349
2021-10-23 16:54:01+00:00,205.0,7.91,205.0,8.66,13.92,47.59359,-54.27349
2021-10-23 17:04:01+00:00,206.0,8.05,211.0,8.79,13.92,47.59359,-54.27349
2021-10-23 17:14:01+00:00,204.0,7.05,206.0,7.73,13.76,47.59359,-54.27349
2021-10-23 17:24:01+00:00,194.0,7.34,203.0,8.96,13.76,47.59359,-54.27349
2021-10-23 17:34:01+00:00,201.0,7.64,204.0,8.15,13.76,47.59359,-54.27349
2021-10-23 17:44:01+00:00,196.0,7.91,199.0,9.02,13.76,47.59359,-54.27349
2021-10-23 17:54:01+00:00,207.0,7.95,206.0,8.91,13.76,47.59359,-54.27349
2021-10-23 18:04:01+00:00,207.0,8.33,207.0,8.96,13.76,47.59359,-54.27349
2021-10-23 18:14:01+00:00,207.0,7.29,209.0,8.0,13.44,47.59359,-54.27349
2021-10-23 18:24:01+00:00,209.0,6.34,207.0,7.16,13.44,47.59359,-54.27349
2021-10-23 18:34:01+00:00,209.0,6.51,209.0,7.49,13.44,47.59359,-54.27349
2021-10-23 18:44:01+00:00,208.0,7.55,209.0,8.15,13.44,47.59359,-54.27349
2021-10-23 18:54:01+00:00,209.0,7.1,209.0,8.3,13.44,47.59359,-54.27349
2021-10-23 19:04:01+00:00,208.0,7.61,205.0,8.32,13.44,47.59359,-54.27349
2021-10-23 19:14:01+00:00,208.0,6.83,207.0,7.57,13.29,47.59359,-54.27349
2021-10-23 19:24:01+00:00,213.0,7.15,214.0,7.86,13.29,47.59359,-54.27349
2021-10-23 19:34:01+00:00,214.0,7.01,214.0,7.68,13.29,47.59359,-54.27349
2021-10-23 19:44:01+00:00,212.0,7.28,212.0,8.26,13.29,47.59359,-54.27349
2021-10-23 19:54:01+00:00,217.0,7.23,218.0,8.09,13.29,47.59359,-54.27349
2021-10-23 20:04:01+00:00,215.0,6.5,219.0,7.32,13.29,47.59359,-54.27349
2021-10-23 20:14:01+00:00,208.0,7.28,208.0,7.96,12.81,47.59359,-54.27349
2021-10-23 20:24:01+00:00,210.0,7.24,208.0,7.89,12.81,47.59359,-54.27349
2021-10-23 20:34:01+00:00,213.0,5.92,212.0,6.45,12.81,47.59359,-54.27349
2021-10-23 20:44:01+00:00,206.0,5.65,212.0,6.94,12.81,47.59359,-54.27349
2021-10-23 20:54:01+00:00,209.0,6.42,206.0,7.24,12.81,47.59359,-54.27349
2021-10-23 21:04:01+00:00,218.0,5.39,217.0,5.89,12.81,47.59359,-54.27349
2021-10-23 21:14:01+00:00,216.0,4.98,216.0,5.75,12.65,47.59359,-54.27349
2021-10-23 21:24:01+00:00,210.0,5.74,210.0,6.18,12.65,47.59359,-54.27349
2021-10-23 21:34:01+00:00,204.0,5.12,210.0,6.01,12.65,47.59359,-54.27349
2021-10-23 21:44:01+00:00,201.0,5.22,210.0,5.97,12.65,47.59359,-54.27349
2021-10-23 21:54:01+00:00,216.0,5.56,218.0,6.1,12.65,47.59359,-54.27349
2021-10-23 22:04:01+00:00,209.0,4.93,221.0,5.78,12.65,47.59359,-54.27349
2021-10-23 22:14:01+00:00,220.0,5.2,224.0,5.58,12.65,47.59359,-54.27349
2021-10-23 22:24:01+00:00,208.0,6.3,205.0,7.72,12.65,47.59359,-54.27349
2021-10-23 22:34:01+00:00,214.0,5.62,216.0,6.12,12.65,47.59359,-54.27349
2021-10-23 22:44:01+00:00,213.0,5.92,213.0,6.35,12.65,47.59359,-54.27349
2021-10-23 22:54:01+00:00,215.0,5.84,214.0,6.42,12.65,47.59359,-54.27349
2021-10-23 23:04:01+00:00,214.0,6.54,221.0,7.34,12.65,47.59359,-54.27349
2021-10-23 23:14:00+00:00,214.0,6.62,213.0,7.13,12.65,47.59359,-54.27349
2021-10-23 23:24:00+00:00,206.0,7.2,206.0,8.27,12.65,47.59359,-54.27349
2021-10-23 23:34:00+00:00,209.0,6.88,211.0,7.6,12.65,47.59359,-54.27349
2021-10-23 23:44:00+00:00,204.0,5.74,210.0,6.74,12.65,47.59359,-54.27349
2021-10-23 23:54:00+00:00,204.0,6.3,206.0,7.29,12.65,47.59359,-54.27349
